Regional Weather Roundup
Issued by NWS

Home | Current Version | Previous Version | Graphics & Text | Print | Product List | Glossary On
Versions: 1 2 3 4 5 6 7 8 9 10 11 12 13 14 15 16 17 18 19 20 21 22 23 24 25 26 27 28 29 30 31 32 33 34 35 36 37 38 39 40 41 42 43 44 45 46 47 48 49 50
000
ASUS45 KTFX 231610
RWRMT
MONTANA REGIONAL WEATHER ROUNDUP
NATIONAL WEATHER SERVICE GREAT FALLS MT
1000 AM MDT THU MAR 23 2017

NOTE: "FAIR" INDICATES FEW OR NO CLOUDS BELOW 12000 FEET WITH NO
SIGNIFICANT WEATHER AND/OR OBSTRUCTIONS TO VISIBILITY.

MTZ001>007-043-231700-
WEST OF THE DIVIDE

CITY           SKY/WX    TMP DP  RH WIND       PRES   REMARKS
KALISPELL      CLOUDY    41  35  79 S8        29.97R
MISSOULA       MOSUNNY   43  27  53 NW5       30.01R
BUTTE          CLOUDY    38  26  62 NW7       29.93R
MULLAN PASS    FLURRIES  24  24 100 MISG      29.95S
ANACONDA         N/A     39  27  60 N8        29.94S
DEER LODGE       N/A     39  27  60 NW14G24   29.95F WCI  31
EUREKA           N/A     43  30  61 SE8       29.97
HAMILTON         N/A     48  27  43 CALM      29.99S
PLAINS           N/A     39  35  85 CALM      30.02R
RONAN            N/A     42  34  73 SW6       30.03R
$$

MTZ008-052>055-231700-
SOUTHWEST MONTANA

CITY           SKY/WX    TMP DP  RH WIND       PRES   REMARKS
BOZEMAN        CLOUDY    43  33  68 NW6       29.91R
DILLON         CLOUDY    39  30  70 NW7       29.90R
ENNIS          CLOUDY    41  30  65 NW16      29.93S
THREE FORKS      N/A     43  43 100 CALM      29.92R
TWIN BRIDGES     N/A     42  26  53 N16       29.90R
$$

MTZ009-010-012-014-046-048-049-054-231700-
EAST SLOPES AND CENTRAL MONTANA

CITY           SKY/WX    TMP DP  RH WIND       PRES   REMARKS
CUT BANK       SUNNY     45  24  43 W25       29.82S
GREAT FALLS    SUNNY     48  27  44 W17       29.85S
MALMSTROM AFB  SUNNY     47  29  50 SW15G25   29.86S
HELENA         SUNNY     47  25  42 NW17G24   29.91S
AUGUSTA          N/A     44  22  40 W20G26    29.85R
BOWMANS CRNR     N/A     43  26  51 SW20      29.84F
CHOTEAU          N/A     46  21  36 W14G21    29.86S
CONRAD           N/A     47  31  54 W14       29.87R
FAIRFIELD        N/A     47  21  36 W18       29.83F
POWER            N/A     45  24  43 W17       29.83F
RAYNESFORD       N/A     45  28  49 W14G23    29.86S
$$

MTZ011-013-016-021-045-047-050-051-231700-
NORTH CENTRAL MONTANA

CITY           SKY/WX    TMP DP  RH WIND       PRES   REMARKS
HAVRE          SUNNY     46  32  58 SW15      29.82S
LEWISTOWN      PTSUNNY   44  27  51 W9        29.84S
N BAR RANCH    PTSUNNY   45  28  53 NW12      29.85R
CHINOOK          N/A     46  34  61 W9G17     29.81S
DENTON           N/A    N/A N/A N/A NW9         N/A
FORT BENTON      N/A     46  30  53 MISG      29.86S VSB 1
GEYSER           N/A     45  29  52 W23       29.83F
GRASS RANGE      N/A     45  30  54 W13       29.80R
STANFORD         N/A     46  27  46 NW22      29.84S
WINIFRED         N/A     45  30  55 NW13      29.83S
$$

MTZ017>020-022>027-061-062-231700-
NORTHEAST MONTANA

CITY           SKY/WX    TMP DP  RH WIND       PRES   REMARKS
GLASGOW        MOSUNNY   42  32  67 NW8       29.77S
JORDAN           N/A     45  37  73 W3        29.78R
SIDNEY         CLOUDY    41  37  86 S5        29.76R
WOLF POINT     CLOUDY    41  36  82 CALM      29.78R
MALTA          SUNNY     39  34  81 SW7       29.79S
PLENTYWOOD       N/A     41  36  81 CALM      29.77R
POPLAR           N/A     37  36  93 CALM      29.78R
SCOBEY           N/A     40  30  67 S5        29.76R
$$

MTZ028>42-056>058-231700-
SOUTHCENTRAL AND SOUTHEAST MONTANA

CITY           SKY/WX    TMP DP  RH WIND       PRES   REMARKS
BAKER          LGT RAIN  45  38  76 S8        29.75R
BILLINGS       CLOUDY    45  38  76 NW10      29.80R
LIVINGSTON     CLOUDY    43  32  65 W15       29.87R
MILES CITY     CLOUDY    47  42  83 W7        29.77R
BIG TIMBER     CLOUDY    46  28  49 W17       29.86R
EKALAKA          N/A     42  38  86 NW6       29.77R
FORSYTH          N/A     46  45  93 W7        29.79R
HARLOWTON        N/A     44  29  54 W20G28    29.83R
LAUREL           N/A     47  33  58 NW6       29.81R
$$

REGIONAL REPORTS...DAKOTAS

CITY           SKY/WX    TMP DP  RH WIND       PRES   REMARKS
WILLISTON      CLOUDY    39  34  82 CALM      29.76F
MINOT          CLOUDY    41  32  70 W7        29.74R
DICKINSON      CLOUDY    46  36  68 N12       29.72S
BEACH            N/A    N/A N/A N/A MISG        N/A
TIOGA          PTSUNNY   36  36 100 CALM      29.76R
WATFORD CITY     N/A     37  37 100 CALM      29.75
BISMARCK       LGT RAIN  37  34  89 N6        29.77S FOG
GRAND FORKS    LGT RAIN  37  30  75 S16       29.82F WCI  28
FARGO          CLOUDY    41  32  70 S22G31    29.85F
BUFFALO SD       N/A     46  41  82 NE15      29.63S
RAPID CITY     SUNNY     54  41  61 N13       29.64S
$$

REGIONAL REPORTS...WYOMING/IDAHO/WASHINGTON

CITY           SKY/WX    TMP DP  RH WIND       PRES   REMARKS
GILLETTE       CLOUDY    44  43  96 N14       29.71S
SHERIDAN       LGT RAIN  44  40  85 N7        29.79R
BUFFALO WY     LGT RAIN  43  39  86 N18G25    29.76S
CODY           CLOUDY    44  33  65 N16G22    29.78R
YELLOWSTONE LA   N/A     33  26  75 VRB5      29.82S
IDAHO FALLS    CLOUDY    39  34  82 SW3       29.83R
SALMON         CLOUDY    45  25  45 CALM      29.94S
BOISE          SUNNY     42  31  64 NW17      30.01R
SPOKANE        PTSUNNY   36  31  82 S16       30.04R WCI  26
$$

REGIONAL REPORTS...ALBERTA

CITY           SKY/WX    TMP DP  RH WIND       PRES   REMARKS
EDMONTON       CLOUDY    27  23  86 E8        29.76S WCI  18
CALGARY        MOSUNNY   46  19  34 W13G21    29.72R
LETHBRIDGE     MOSUNNY   46  30  53 SW16G22   29.78S
MEDICINE HAT   MOSUNNY   48  32  53 SW13      29.76S
WATERTON GATE    N/A     41  25  52 SW21G31     N/A
CARDSTON         N/A     43  25  49 W18G30      N/A
MILK RIVER       N/A     48  28  46 W18G24      N/A
ONEFOUR          N/A     46  30  53 W7          N/A
$$

REGIONAL REPORTS...SASKATCHEWAN

CITY           SKY/WX    TMP DP  RH WIND       PRES   REMARKS
SWIFT CURRENT  MOSUNNY   37  36  93 E5        29.75R FOG
REGINA         CLOUDY    32  30  93 NW9       29.79S WCI  24
SASKATOON      PTSUNNY   27  23  86 NW7       29.83R WCI  19
CYPRESS HILLS    N/A     45  21  39 W12G20      N/A
VAL MARIE        N/A     46  32  57 NW13        N/A
ROCKGLEN         N/A     46  30  53 NW7         N/A
ASSINIBOIA       N/A     21  21 100 SE3         N/A
$$



USA.gov is the U.S. government's official web portal to all federal, state and local government web resources and services.